Total_Precipitation_Accumulation
0.05 0.11 0.13 0.15 0.12 0.14 0.19 0.22 0.15 0.15 0.12 0.09 0.07 0.08 0.08 0.07 0.09 0.22 0.28 0.27 0.26 0.36 0.63 0.92 1.09 1.13 0.98 0.81 0.72 0.71 0.69 0.57 0.48 0.36 0.30 0.28 0.27 0.26 0.20 0.11 0.04 0.01 0.00
0.12 0.17 0.16 0.18 0.15 0.13 0.21 0.23 0.18 0.20 0.12 0.08 0.06 0.03 0.04 0.04 0.04 0.07 0.12 0.18 0.31 0.45 0.54 0.72 0.95 1.05 0.98 0.81 0.67 0.64 0.68 0.67 0.60 0.44 0.35 0.33 0.34 0.34 0.29 0.19 0.08 0.03 0.02
0.15 0.18 0.19 0.18 0.19 0.19 0.26 0.25 0.21 0.21 0.13 0.09 0.06 0.05 0.05 0.05 0.04 0.08 0.13 0.20 0.25 0.33 0.41 0.50 0.71 0.87 0.87 0.77 0.63 0.65 0.69 0.74 0.78 0.61 0.44 0.38 0.38 0.39 0.36 0.28 0.16 0.07 0.03
0.14 0.22 0.20 0.18 0.21 0.22 0.25 0.28 0.22 0.21 0.20 0.13 0.08 0.04 0.04 0.04 0.05 0.08 0.15 0.22 0.21 0.15 0.26 0.41 0.49 0.58 0.69 0.77 0.75 0.82 0.90 0.91 0.94 0.80 0.58 0.46 0.44 0.45 0.41 0.35 0.25 0.12 0.06
0.16 0.29 0.29 0.27 0.19 0.27 0.23 0.19 0.21 0.24 0.25 0.21 0.07 0.08 0.04 0.05 0.06 0.07 0.10 0.14 0.13 0.13 0.15 0.25 0.44 0.46 0.60 0.81 0.92 1.00 1.13 1.21 1.16 1.01 0.76 0.62 0.59 0.55 0.49 0.42 0.33 0.18 0.09
0.26 0.38 0.37 0.38 0.29 0.35 0.35 0.28 0.30 0.29 0.25 0.20 0.06 0.06 0.04 0.03 0.04 0.07 0.08 0.10 0.12 0.12 0.11 0.16 0.20 0.25 0.34 0.53 0.73 0.89 1.09 1.37 1.43 1.21 1.07 0.98 0.89 0.78 0.61 0.47 0.36 0.25 0.16
0.37 0.49 0.45 0.55 0.47 0.44 0.50 0.40 0.42 0.35 0.30 0.28 0.19 0.13 0.03 0.01 0.03 0.06 0.09 0.10 0.10 0.14 0.17 0.26 0.32 0.36 0.34 0.38 0.41 0.55 0.84 1.24 1.49 1.42 1.44 1.42 1.33 1.13 0.80 0.58 0.38 0.27 0.21
0.45 0.51 0.64 0.65 0.58 0.54 0.60 0.56 0.47 0.33 0.30 0.35 0.34 0.24 0.14 0.11 0.11 0.11 0.15 0.14 0.14 0.15 0.16 0.26 0.37 0.44 0.36 0.34 0.39 0.42 0.69 1.05 1.31 1.53 1.80 1.94 1.87 1.44 0.99 0.70 0.45 0.32 0.27
0.58 0.60 0.64 0.70 0.63 0.58 0.60 0.66 0.53 0.43 0.42 0.46 0.53 0.45 0.34 0.29 0.17 0.07 0.07 0.11 0.18 0.20 0.17 0.17 0.17 0.15 0.13 0.24 0.47 0.48 0.54 0.66 0.83 1.29 1.81 2.22 2.14 1.50 1.02 0.76 0.58 0.40 0.31
0.64 0.64 0.64 0.67 0.65 0.59 0.55 0.54 0.55 0.60 0.53 0.47 0.56 0.62 0.60 0.47 0.32 0.15 0.07 0.07 0.12 0.17 0.20 0.17 0.12 0.06 0.06 0.16 0.34 0.36 0.30 0.23 0.27 0.60 1.14 1.51 1.57 1.22 0.93 0.78 0.63 0.46 0.32
0.69 0.67 0.65 0.67 0.67 0.64 0.56 0.56 0.61 0.60 0.52 0.46 0.47 0.49 0.55 0.56 0.49 0.37 0.23 0.15 0.10 0.07 0.10 0.10 0.08 0.06 0.07 0.15 0.23 0.22 0.13 0.08 0.11 0.21 0.41 0.68 0.86 0.84 0.74 0.72 0.67 0.52 0.37
0.70 0.66 0.64 0.65 0.63 0.58 0.53 0.52 0.55 0.55 0.50 0.48 0.45 0.45 0.47 0.47 0.54 0.54 0.38 0.29 0.20 0.05 0.04 0.05 0.06 0.08 0.12 0.15 0.11 0.10 0.08 0.06 0.05 0.08 0.16 0.26 0.39 0.49 0.56 0.64 0.66 0.54 0.40
0.78 0.69 0.57 0.48 0.42 0.38 0.41 0.45 0.47 0.51 0.51 0.52 0.48 0.47 0.49 0.46 0.56 0.57 0.44 0.33 0.30 0.13 0.11 0.07 0.07 0.07 0.08 0.12 0.09 0.09 0.07 0.04 0.04 0.04 0.06 0.09 0.18 0.28 0.38 0.50 0.56 0.51 0.42
0.74 0.59 0.45 0.36 0.30 0.30 0.34 0.42 0.52 0.51 0.57 0.57 0.53 0.50 0.45 0.45 0.52 0.56 0.56 0.53 0.43 0.37 0.38 0.27 0.09 0.05 0.07 0.10 0.10 0.07 0.03 0.03 0.02 0.02 0.03 0.05 0.09 0.16 0.23 0.34 0.44 0.45 0.39
0.43 0.34 0.29 0.25 0.23 0.24 0.26 0.30 0.42 0.41 0.43 0.48 0.58 0.52 0.42 0.41 0.47 0.52 0.62 0.68 0.60 0.53 0.58 0.52 0.25 0.10 0.07 0.09 0.09 0.05 0.03 0.02 0.01 0.01 0.01 0.04 0.05 0.09 0.16 0.23 0.30 0.33 0.29
0.20 0.16 0.14 0.12 0.12 0.12 0.14 0.18 0.26 0.36 0.34 0.38 0.50 0.46 0.41 0.42 0.47 0.51 0.58 0.66 0.72 0.71 0.65 0.63 0.46 0.23 0.16 0.14 0.11 0.07 0.04 0.02 0.00 0.00 0.00 0.01 0.04 0.06 0.09 0.14 0.19 0.22 0.21
0.08 0.05 0.05 0.05 0.05 0.05 0.05 0.06 0.11 0.21 0.25 0.25 0.33 0.33 0.35 0.40 0.44 0.47 0.51 0.54 0.69 0.82 0.79 0.84 0.74 0.55 0.37 0.25 0.17 0.12 0.07 0.02 0.00 0.00 0.00 0.01 0.02 0.04 0.07 0.10 0.14 0.17 0.17
0.02 0.02 0.02 0.02 0.02 0.02 0.02 0.02 0.03 0.06 0.13 0.19 0.28 0.36 0.42 0.50 0.50 0.45 0.47 0.53 0.69 0.85 0.94 1.09 1.18 0.92 0.64 0.40 0.31 0.20 0.11 0.05 0.02 0.02 0.01 0.01 0.02 0.02 0.04 0.07 0.10 0.13 0.13
0.00 0.00 0.00 0.00 0.00 0.00 0.01 0.01 0.02 0.03 0.08 0.13 0.24 0.36 0.40 0.41 0.44 0.44 0.49 0.54 0.61 0.72 0.83 0.97 1.14 0.98 0.78 0.54 0.52 0.39 0.24 0.18 0.09 0.07 0.03 0.01 0.01 0.01 0.02 0.03 0.05 0.07 0.07
0.00 0.00 0.00 0.00 0.00 0.00 0.01 0.02 0.02 0.04 0.06 0.10 0.16 0.23 0.27 0.28 0.33 0.36 0.39 0.47 0.53 0.56 0.61 0.70 0.86 0.94 0.96 0.89 0.82 0.70 0.57 0.42 0.28 0.15 0.13 0.05 0.03 0.02 0.02 0.02 0.02 0.03 0.03
0.00 0.00 0.00 0.00 0.00 0.00 0.00 0.01 0.02 0.03 0.05 0.07 0.09 0.11 0.10 0.12 0.15 0.19 0.24 0.33 0.41 0.49 0.55 0.62 0.76 0.90 1.00 1.04 0.96 0.94 0.82 0.69 0.50 0.40 0.41 0.27 0.21 0.16 0.09 0.04 0.03 0.03 0.03
0.01 0.00 0.00 0.00 0.00 0.00 0.00 0.01 0.01 0.01 0.02 0.03 0.05 0.05 0.04 0.04 0.05 0.08 0.10 0.13 0.19 0.29 0.44 0.61 0.74 0.91 0.96 0.95 1.07 1.05 0.98 0.91 0.78 0.66 0.66 0.65 0.58 0.49 0.35 0.20 0.13 0.07 0.05
0.03 0.02 0.01 0.01 0.01 0.00 0.00 0.00 0.00 0.00 0.00 0.00 0.01 0.02 0.01 0.00 0.01 0.03 0.06 0.11 0.11 0.11 0.16 0.38 0.54 0.62 0.63 0.62 0.82 1.02 0.97 0.93 0.95 0.82 0.77 0.83 0.83 0.75 0.54 0.41 0.27 0.14 0.10
0.04 0.04 0.03 0.03 0.02 0.00 0.00 0.00 0.00 0.00 0.00 0.00 0.00 0.00 0.00 0.00 0.00 0.01 0.03 0.08 0.05 0.03 0.06 0.14 0.18 0.19 0.24 0.34 0.49 0.74 0.92 0.86 0.86 0.84 0.85 0.95 0.93 0.91 0.75 0.54 0.36 0.20 0.13
0.07 0.04 0.04 0.06 0.05 0.01 0.00 0.00 0.00 0.00 0.00 0.00 0.00 0.00 0.00 0.00 0.00 0.00 0.04 0.07 0.03 0.01 0.01 0.02 0.04 0.06 0.10 0.13 0.21 0.35 0.55 0.81 1.01 0.99 0.86 0.97 0.97 0.97 1.01 0.80 0.53 0.31 0.19
0.10 0.06 0.06 0.05 0.06 0.03 0.00 0.00 0.00 0.00 0.00 0.00 0.00 0.00 0.00 0.00 0.00 0.00 0.02 0.04 0.03 0.02 0.01 0.01 0.01 0.01 0.02 0.04 0.07 0.12 0.24 0.45 0.71 0.84 0.80 0.86 0.98 1.14 1.20 0.95 0.63 0.42 0.27